| time (UTC) | temp C | wind direction | speed KPH | gust KPH | rain 1hr cm | rain 24hr cm | rain mn cm | humidity % | barometer mb |
| 20260507083038 | 15 | 0 | 0.0 | 0.0 | 0.00 | 0.00 | 0.00 | 85 | 1016.8 |
| 20260507081539 | 15 | 0 | 0.0 | 0.0 | 0.00 | 0.00 | 0.00 | 83 | 1017.0 |
| 20260507080041 | 15 | 0 | 0.0 | 6.4 | 0.00 | 0.00 | 0.00 | 83 | 1017.0 |
| 20260507074542 | 15 | 278 | 1.6 | 6.4 | 0.00 | 0.00 | 0.00 | 82 | 1017.0 |
| 20260507073043 | 15 | 314 | 1.6 | 4.8 | 0.00 | 0.00 | 0.00 | 82 | 1017.1 |
| 20260507071539 | 15 | 0 | 0.0 | 3.2 | 0.00 | 0.00 | 0.00 | 81 | 1017.2 |
| 20260507070045 | 16 | 0 | 0.0 | 0.0 | 0.00 | 0.00 | 0.00 | 82 | 1017.2 |
| 20260507064545 | 16 | 0 | 0.0 | 0.0 | 0.00 | 0.00 | 0.00 | 81 | 1017.3 |
| 20260507063037 | 16 | 0 | 0.0 | 0.0 | 0.00 | 0.00 | 0.00 | 79 | 1017.4 |
| 20260507061532 | 16 | 0 | 0.0 | 3.2 | 0.00 | 0.00 | 0.00 | 78 | 1017.3 |
| 20260507060033 | 16 | 313 | 0.0 | 4.8 | 0.00 | 0.00 | 0.00 | 77 | 1017.3 |
| 20260507054538 | 16 | 319 | 0.0 | 4.8 | 0.00 | 0.00 | 0.00 | 77 | 1017.3 |
| 20260507053037 | 16 | 333 | 1.6 | 4.8 | 0.00 | 0.00 | 0.00 | 76 | 1017.3 |
| 20260507051537 | 16 | 316 | 3.2 | 6.4 | 0.00 | 0.00 | 0.00 | 76 | 1017.3 |
| 20260507050037 | 16 | 0 | 1.6 | 4.8 | 0.00 | 0.00 | 0.00 | 75 | 1017.3 |
| 20260507044532 | 17 | 0 | 0.0 | 6.4 | 0.00 | 0.00 | 0.00 | 74 | 1017.2 |
| 20260507043035 | 17 | 0 | 3.2 | 9.7 | 0.00 | 0.00 | 0.00 | 72 | 1017.2 |
| 20260507041535 | 17 | 243 | 1.6 | 8.0 | 0.00 | 0.00 | 0.00 | 70 | 1017.0 |
| 20260507040042 | 17 | 278 | 3.2 | 9.7 | 0.00 | 0.00 | 0.00 | 69 | 1016.8 |
| 20260507034542 | 17 | 266 | 6.4 | 11.3 | 0.00 | 0.00 | 0.00 | 68 | 1016.7 |
| 20260507033045 | 18 | 283 | 1.6 | 11.3 | 0.00 | 0.00 | 0.00 | 68 | 1016.5 |
| 20260507031551 | 18 | 254 | 3.2 | 12.9 | 0.00 | 0.00 | 0.00 | 66 | 1016.3 |
| 20260507030047 | 18 | 263 | 8.0 | 12.9 | 0.00 | 0.00 | 0.00 | 64 | 1016.2 |
| 20260507024559 | 19 | 0 | 4.8 | 9.7 | 0.00 | 0.00 | 0.00 | 64 | 1016.0 |
| 20260507023037 | 19 | 259 | 4.8 | 12.9 | 0.00 | 0.00 | 0.00 | 61 | 1015.7 |
| 20260507021540 | 20 | 321 | 6.4 | 14.5 | 0.00 | 0.00 | 0.00 | 58 | 1015.6 |
| 20260507020036 | 21 | 283 | 8.0 | 12.9 | 0.00 | 0.00 | 0.00 | 58 | 1015.5 |
| 20260507014547 | 22 | 253 | 4.8 | 9.7 | 0.00 | 0.00 | 0.00 | 59 | 1015.4 |
| 20260507013040 | 22 | 240 | 0.0 | 4.8 | 0.00 | 0.00 | 0.00 | 61 | 1015.3 |
| 20260507011544 | 22 | 0 | 0.0 | 8.0 | 0.00 | 0.00 | 0.00 | 59 | 1015.2 |
| 20260507010041 | 22 | 231 | 1.6 | 14.5 | 0.00 | 0.00 | 0.00 | 59 | 1015.1 |
| 20260507004536 | 22 | 236 | 1.6 | 12.9 | 0.00 | 0.00 | 0.00 | 59 | 1015.1 |
| 20260507003039 | 23 | 240 | 1.6 | 6.4 | 0.00 | 0.00 | 0.00 | 52 | 1015.1 |
| 20260507001538 | 23 | 0 | 0.0 | 4.8 | 0.00 | 0.00 | 0.00 | 52 | 1015.0 |
| 20260507000036 | 23 | 247 | 3.2 | 9.7 | 0.00 | 0.00 | 0.00 | 55 | 1015.1 |
| 20260506234545 | 22 | 184 | 1.6 | 14.5 | 0.00 | 0.00 | 0.00 | 53 | 1015.1 |
| 20260506233046 | 22 | 139 | 4.8 | 16.1 | 0.00 | 0.00 | 0.00 | 54 | 1015.1 |
| 20260506231536 | 22 | 196 | 4.8 | 16.1 | 0.00 | 0.00 | 0.00 | 53 | 1015.3 |
| 20260506230035 | 23 | 262 | 6.4 | 17.7 | 0.00 | 0.00 | 0.00 | 52 | 1015.4 |
| 20260506224540 | 22 | 243 | 8.0 | 22.5 | 0.00 | 0.00 | 0.00 | 51 | 1015.7 |
| 20260506223035 | 23 | 174 | 3.2 | 14.5 | 0.00 | 0.00 | 0.00 | 52 | 1015.9 |
| 20260506221538 | 23 | 248 | 1.6 | 16.1 | 0.00 | 0.00 | 0.00 | 52 | 1016.0 |
| 20260506220037 | 23 | 225 | 3.2 | 19.3 | 0.00 | 0.00 | 0.00 | 51 | 1016.2 |
| 20260506214537 | 23 | 182 | 4.8 | 14.5 | 0.00 | 0.00 | 0.00 | 48 | 1016.4 |
| 20260506213038 | 23 | 181 | 4.8 | 12.9 | 0.00 | 0.00 | 0.00 | 46 | 1016.5 |
| 20260506211535 | 23 | 226 | 1.6 | 16.1 | 0.00 | 0.00 | 0.00 | 47 | 1016.6 |
| 20260506210038 | 23 | 200 | 6.4 | 17.7 | 0.00 | 0.00 | 0.00 | 50 | 1016.7 |
| 20260506204540 | 23 | 237 | 4.8 | 12.9 | 0.00 | 0.00 | 0.00 | 47 | 1016.8 |
| 20260506203040 | 24 | 262 | 3.2 | 9.7 | 0.00 | 0.00 | 0.00 | 46 | 1016.9 |
| 20260506201539 | 23 | 218 | 1.6 | 8.0 | 0.00 | 0.00 | 0.00 | 49 | 1017.1 |
| 20260506200040 | 23 | 240 | 3.2 | 8.0 | 0.00 | 0.00 | 0.00 | 47 | 1017.2 |
| 20260506194536 | 23 | 270 | 1.6 | 9.7 | 0.00 | 0.00 | 0.00 | 50 | 1017.4 |
| 20260506193033 | 22 | 235 | 3.2 | 12.9 | 0.00 | 0.00 | 0.00 | 51 | 1017.6 |
| 20260506191535 | 23 | 226 | 1.6 | 6.4 | 0.00 | 0.00 | 0.00 | 52 | 1017.7 |
| 20260506190039 | 22 | 260 | 1.6 | 11.3 | 0.00 | 0.00 | 0.00 | 55 | 1017.7 |
| 20260506184545 | 21 | 223 | 4.8 | 14.5 | 0.00 | 0.05 | 0.00 | 58 | 1017.9 |
| 20260506183034 | 20 | 0 | 3.2 | 12.9 | 0.00 | 0.05 | 0.00 | 61 | 1017.9 |
| 20260506181538 | 20 | 198 | 1.6 | 17.7 | 0.00 | 0.05 | 0.00 | 62 | 1018.0 |
| 20260506180038 | 21 | 229 | 1.6 | 9.7 | 0.00 | 0.05 | 0.00 | 60 | 1018.0 |
| 20260506174537 | 20 | 258 | 0.0 | 6.4 | 0.00 | 0.05 | 0.00 | 60 | 1018.1 |
| 20260506173054 | 20 | 0 | 0.0 | 8.0 | 0.00 | 0.05 | 0.00 | 58 | 1018.0 |
| 20260506171536 | 20 | 291 | 1.6 | 9.7 | 0.00 | 0.05 | 0.00 | 58 | 1018.0 |
| 20260506170040 | 20 | 0 | 0.0 | 6.4 | 0.00 | 0.05 | 0.00 | 56 | 1018.0 |
| 20260506164535 | 20 | 0 | 1.6 | 8.0 | 0.00 | 0.05 | 0.00 | 58 | 1018.0 |
| 20260506163040 | 19 | 0 | 0.0 | 0.0 | 0.00 | 0.05 | 0.00 | 60 | 1018.1 |
| 20260506161535 | 19 | 0 | 0.0 | 8.0 | 0.00 | 0.05 | 0.00 | 64 | 1017.9 |
| 20260506160038 | 18 | 0 | 0.0 | 6.4 | 0.00 | 0.05 | 0.00 | 67 | 1018.1 |
| 20260506154537 | 17 | 0 | 0.0 | 9.7 | 0.00 | 0.05 | 0.00 | 70 | 1018.1 |
| 20260506153032 | 17 | 0 | 1.6 | 6.4 | 0.00 | 0.05 | 0.00 | 71 | 1018.2 |
| 20260506151539 | 16 | 77 | 1.6 | 4.8 | 0.00 | 0.05 | 0.00 | 71 | 1018.2 |
| 20260506150042 | 16 | 84 | 1.6 | 6.4 | 0.00 | 0.05 | 0.00 | 71 | 1018.1 |
| 20260506144539 | 15 | 0 | 3.2 | 4.8 | 0.00 | 0.05 | 0.00 | 71 | 1018.1 |
| 20260506143040 | 15 | 0 | 0.0 | 4.8 | 0.00 | 0.05 | 0.00 | 72 | 1018.0 |
| 20260506141534 | 13 | 79 | 1.6 | 4.8 | 0.00 | 0.05 | 0.00 | 75 | 1018.0 |
| 20260506140036 | 13 | 65 | 1.6 | 4.8 | 0.00 | 0.05 | 0.00 | 76 | 1018.0 |
| 20260506134535 | 13 | 88 | 1.6 | 3.2 | 0.00 | 0.05 | 0.00 | 79 | 1017.9 |
| 20260506133039 | 12 | 0 | 0.0 | 0.0 | 0.00 | 0.05 | 0.00 | 82 | 1017.8 |
| 20260506131545 | 12 | 0 | 0.0 | 0.0 | 0.00 | 0.05 | 0.00 | 84 | 1017.6 |
| 20260506130053 | 12 | 0 | 0.0 | 0.0 | 0.00 | 0.05 | 0.00 | 84 | 1017.4 |
| 20260506124535 | 12 | 0 | 0.0 | 1.6 | 0.00 | 0.05 | 0.00 | 84 | 1017.3 |
| 20260506123037 | 12 | 0 | 0.0 | 0.0 | 0.00 | 0.05 | 0.00 | 85 | 1017.2 |
| 20260506121539 | 12 | 0 | 0.0 | 0.0 | 0.00 | 0.05 | 0.00 | 84 | 1017.2 |
| 20260506120036 | 12 | 0 | 0.0 | 0.0 | 0.00 | 0.05 | 0.00 | 84 | 1017.2 |
| 20260506114535 | 12 | 0 | 0.0 | 0.0 | 0.00 | 0.05 | 0.00 | 85 | 1017.1 |
| 20260506113040 | 12 | 0 | 0.0 | 0.0 | 0.00 | 0.05 | 0.00 | 85 | 1016.9 |
| 20260506111535 | 13 | 0 | 0.0 | 0.0 | 0.00 | 0.05 | 0.00 | 85 | 1016.8 |
| 20260506110043 | 13 | 0 | 0.0 | 0.0 | 0.00 | 0.05 | 0.00 | 85 | 1016.8 |
| 20260506104538 | 13 | 0 | 0.0 | 0.0 | 0.00 | 0.05 | 0.00 | 85 | 1017.0 |
| 20260506103045 | 13 | 0 | 1.6 | 4.8 | 0.00 | 0.05 | 0.00 | 85 | 1017.0 |
| 20260506101548 | 13 | 94 | 0.0 | 1.6 | 0.00 | 0.05 | 0.00 | 87 | 1017.0 |
| 20260506100048 | 13 | 0 | 0.0 | 0.0 | 0.00 | 0.05 | 0.00 | 87 | 1016.9 |
| 20260506094536 | 13 | 0 | 0.0 | 0.0 | 0.00 | 0.30 | 0.00 | 87 | 1017.1 |
| 20260506093043 | 13 | 0 | 0.0 | 3.2 | 0.00 | 0.30 | 0.00 | 87 | 1017.1 |
| 20260506091539 | 13 | 0 | 0.0 | 0.0 | 0.00 | 0.30 | 0.00 | 89 | 1017.1 |
| 20260506090034 | 13 | 0 | 0.0 | 0.0 | 0.00 | 0.30 | 0.00 | 89 | 1017.4 |
| 20260506084549 | 13 | 0 | 0.0 | 0.0 | 0.00 | 0.30 | 0.00 | 90 | 1017.3 |